LEMUR-2-STELLA

Last updated on Mon Sep 16 2024 00:02:03 GMT+0000 (Coordinated Universal Time)

1 60533U 24149BT 24258.94129679 .00021329 00000+0 20849-2 0 9996 2 60533 97.7427 333.9169 0000624 36.4286 323.6975 14.92368596 4338
UTC large
Height (km)
Speed (km/s)
/
Latitude / Longitude
Inclination (degrees)
Orbital Period (minutes)
Azimuth
Elevation
Range (km)
Doppler Factor

Next 0 passes for location: London (51.5072 / 0.1276)

Sorry there are no passes over London.